Theta_e
341 338 337 336 336 336 335 334 334 332 331 331 326 320 315 310 309 308 307 307 306 305 306 308 310 310 309 308 305 304 303 303 299 303 308 309 308 308 311 312 314 315 319
336 334 333 333 332 332 331 329 325 321 319 314 313 310 308 306 305 304 303 303 302 301 302 304 305 311 305 303 301 301 300 300 299 296 299 301 302 303 305 304 307 310 308
331 327 324 323 323 321 317 315 313 311 310 310 308 305 305 304 303 303 302 302 301 300 300 302 305 304 300 300 300 299 298 300 297 296 296 299 299 300 301 301 302 302 306
326 322 320 317 314 314 313 312 310 310 307 303 302 302 301 301 301 300 299 299 299 300 303 305 303 302 300 299 299 297 298 296 296 295 295 296 297 298 298 298 299 299 299
319 316 314 313 312 312 311 309 309 308 305 302 300 299 299 299 300 298 298 299 301 302 305 305 306 307 307 304 299 296 295 294 294 294 294 296 296 296 296 297 296 299 298
313 312 313 312 310 309 307 306 305 304 301 299 298 297 295 297 297 300 300 299 301 301 302 306 303 302 301 301 302 303 301 295 294 294 294 294 294 298 300 299 297 297 296
312 312 311 309 307 306 305 304 302 300 298 296 295 294 293 294 296 297 300 298 298 298 299 299 298 299 299 296 298 300 300 303 302 297 293 297 297 299 299 297 297 295 295
310 309 308 307 306 305 303 301 301 299 297 296 294 293 293 295 296 296 298 295 296 297 296 295 296 296 295 295 296 296 297 300 300 300 300 300 300 302 298 300 297 297 297
306 305 305 305 303 302 301 301 300 299 299 297 294 292 291 292 295 295 294 293 293 294 296 296 295 294 295 295 295 296 294 295 300 300 300 299 297 297 299 300 298 297 296
304 304 304 305 304 301 301 300 298 298 298 298 295 293 295 291 294 294 293 292 291 293 294 295 298 295 295 294 297 296 293 293 294 296 298 297 296 296 299 297 297 294 295
304 305 304 303 302 301 300 299 299 298 297 296 294 291 291 291 292 293 294 291 291 292 296 297 296 295 294 294 294 294 293 292 292 291 292 292 293 294 294 295 295 295 293
304 303 302 301 302 301 299 299 297 297 296 294 292 291 290 289 293 292 292 293 295 295 296 297 295 294 293 292 292 292 292 292 290 290 290 290 289 289 291 292 293 294 294
300 299 298 297 297 296 293 292 292 294 294 294 293 290 286 287 287 291 291 291 293 294 295 295 293 292 292 291 293 292 291 288 287 286 288 289 290 291 292 292 293 293 293
297 296 295 293 291 290 289 288 288 289 289 289 290 286 285 285 286 286 287 287 292 294 293 291 293 292 292 291 289 288 287 287 287 287 289 290 290 290 289 290 289 290 290
296 295 292 290 289 287 287 286 286 285 287 286 285 285 284 284 286 289 288 287 287 290 289 288 286 286 285 285 286 286 286 286 287 289 289 288 288 289 289 290 290 290 289
296 294 291 289 287 286 285 285 290 290 290 289 289 287 286 288 290 290 290 290 290 290 286 284 283 284 283 284 284 284 284 286 288 289 288 288 287 288 288 289 290 290 289
293 293 292 289 287 286 286 285 284 286 290 290 289 289 289 289 290 290 289 288 288 287 283 283 282 283 283 283 283 282 283 286 289 288 288 288 288 288 288 289 290 291 291
293 295 293 292 291 290 288 287 286 285 284 284 288 288 289 289 289 289 289 287 284 284 282 283 283 283 282 283 283 283 283 284 285 285 285 286 287 287 288 289 290 292 293
295 296 296 296 295 294 292 290 288 287 286 285 285 288 287 289 289 289 288 284 283 282 283 284 283 282 282 283 283 283 282 282 283 283 283 283 285 286 287 289 290 290 291
294 295 295 295 295 294 293 293 292 289 286 286 286 285 285 285 284 284 285 285 284 283 283 283 282 282 282 282 282 281 281 281 281 281 281 282 283 284 286 288 290 292 293
294 294 290 295 294 294 293 292 287 284 285 285 283 284 284 284 284 284 284 284 284 283 282 281 280 280 280 280 280 279 279 279 279 279 280 281 282 283 285 287 292 294 293
294 294 295 295 295 294 290 289 287 285 285 284 283 284 284 285 285 284 284 284 284 283 283 281 279 279 279 279 279 278 278 278 278 279 279 280 281 283 286 287 288 292 292
294 294 294 294 293 289 289 289 288 286 285 285 285 285 285 284 284 284 284 284 283 282 281 280 278 278 278 279 279 278 277 278 279 279 279 280 281 283 285 285 287 289 288
293 294 293 293 291 288 287 286 286 286 286 286 285 284 283 283 283 284 283 283 283 282 281 280 279 279 280 280 280 280 280 280 281 280 280 280 281 283 284 284 286 288 287
292 293 293 290 287 287 287 287 287 287 287 286 285 284 283 283 282 283 283 283 283 282 281 280 279 280 280 280 281 281 281 281 281 281 280 281 282 282 283 284 286 287 287
292 293 292 287 287 287 286 286 285 286 285 285 284 283 282 282 282 281 282 282 282 282 282 281 281 281 281 281 281 281 281 281 281 281 281 281 281 281 282 283 285 285 286
Wind_Speed
15 14 15 12 13 12 13 12 12 10 10 12 10 9 10 10 8 9 9 7 8 6 6 6 6 3 3 4 4 4 4 3 1 4 2 4 6 8 9 8 10 10 9
17 16 15 15 13 13 14 12 11 12 11 12 13 12 11 10 8 9 9 6 6 7 6 6 5 3 6 5 4 5 5 3 2 3 3 4 4 6 5 7 7 6 7
19 18 15 14 14 15 15 13 14 14 12 12 13 11 10 8 9 6 6 5 5 5 4 5 5 7 6 4 4 4 3 3 2 1 3 2 3 3 4 4 5 6 6
20 19 18 15 15 15 14 13 14 12 13 13 12 11 9 8 7 5 4 5 5 5 6 7 7 6 5 5 5 5 4 4 3 2 3 3 2 3 2 4 8 3 7
21 19 18 16 16 16 14 13 13 13 13 12 11 9 8 8 6 6 6 6 7 8 6 6 6 9 12 9 3 5 5 3 3 3 3 3 4 5 5 3 4 7 5
21 20 18 16 17 14 13 12 14 13 12 11 10 10 8 6 9 10 7 6 6 5 4 3 6 7 8 12 13 11 7 3 4 3 3 3 4 5 6 6 6 8 6
22 18 17 17 16 12 11 12 12 12 11 11 9 8 7 6 13 13 11 6 5 5 5 6 5 7 8 5 9 10 9 6 6 2 3 3 4 5 5 6 5 3 4
19 17 16 16 15 12 11 11 10 10 11 9 8 6 8 9 14 12 11 7 6 7 7 6 6 5 6 6 5 6 6 7 8 6 4 6 5 6 4 4 5 7 5
17 16 15 14 14 11 11 11 9 10 8 8 7 8 10 9 13 12 8 5 6 6 5 5 5 5 7 8 6 6 6 7 8 10 9 11 11 11 9 5 6 8 10
15 15 13 13 12 12 11 10 5 9 8 7 8 7 12 8 11 11 7 3 6 4 3 3 7 5 9 9 5 6 7 8 9 11 9 9 9 9 11 6 7 9 9
15 15 15 13 12 11 10 8 7 7 8 8 9 6 7 7 8 10 10 5 3 3 4 4 4 10 12 13 11 8 7 6 9 6 7 6 7 7 8 9 9 7 9
15 15 13 11 9 8 8 5 6 6 8 7 8 6 5 6 9 9 12 9 7 4 4 4 6 12 12 11 8 10 10 8 5 6 7 6 7 8 8 8 9 8 8
14 13 12 11 10 9 8 6 5 5 5 6 6 5 4 3 4 12 10 10 9 4 3 6 7 12 10 6 10 11 8 4 4 5 7 8 8 9 11 10 10 11 11
13 11 10 11 11 9 7 5 6 5 5 5 5 5 4 3 4 4 4 5 7 4 4 4 7 8 6 5 5 5 4 4 4 5 7 7 7 8 8 8 9 11 11
11 10 9 8 10 9 8 5 6 4 3 5 4 4 4 4 2 4 4 3 2 1 3 3 4 4 4 5 6 6 6 5 6 6 6 7 8 8 8 9 7 8 7
9 7 8 7 7 7 7 7 12 10 12 11 9 6 2 4 3 6 8 10 8 6 4 3 4 5 5 5 6 6 5 8 7 7 7 7 8 9 9 9 8 7 9
9 8 8 8 7 7 6 6 6 6 10 8 6 7 5 5 5 7 8 8 8 5 3 4 4 4 4 5 6 5 7 7 9 7 7 8 8 9 11 10 10 9 10
7 10 7 7 7 6 5 4 4 4 4 1 4 3 4 5 7 7 7 5 4 5 4 4 4 5 4 6 6 6 7 8 8 8 8 9 9 9 10 10 10 11 11
5 4 5 6 7 7 6 6 4 4 4 3 2 3 2 4 6 3 6 4 3 4 4 6 4 5 5 5 6 6 7 7 8 8 8 8 9 9 10 10 10 12 11
4 7 6 6 7 6 5 5 5 4 4 4 3 3 1 3 3 2 4 3 4 4 5 6 5 5 5 5 6 7 7 8 8 8 9 8 9 8 9 11 10 11 12
3 3 7 6 6 5 5 5 5 4 4 3 2 2 5 4 4 4 4 4 4 4 5 6 5 4 5 5 6 6 7 7 8 8 8 8 9 9 10 9 10 10 11
3 3 4 4 5 5 4 4 4 5 5 5 2 2 6 5 4 5 5 4 4 4 4 6 5 4 4 5 6 6 7 8 8 9 9 9 9 9 9 9 10 11 12
0 3 3 3 5 6 5 5 4 4 5 5 5 5 5 4 5 5 4 4 5 5 4 5 5 4 4 5 5 5 6 7 8 8 9 9 9 9 9 9 10 10 12
2 3 3 4 4 5 5 5 6 6 5 5 6 5 5 5 5 6 5 4 5 5 4 4 4 6 6 6 6 7 6 7 7 8 10 8 8 10 9 9 9 10 11
1 2 3 6 6 7 8 8 8 7 7 7 6 6 4 5 6 6 5 4 5 5 5 4 4 6 7 9 11 12 13 14 12 13 8 8 10 12 11 9 10 8 11
2 2 5 5 6 7 8 9 8 8 8 7 6 5 5 5 5 5 4 5 5 5 5 4 6 10 10 8 11 13 14 15 14 16 9 8 9 9 9 11 12 6 9
Wind_Direction
122 121 115 117 117 116 113 114 113 109 109 104 104 84 75 69 63 76 70 53 61 47 26 28 26 22 52 41 39 43 40 31 353 312 323 332 348 6 358 12 10 15 358
116 113 111 111 115 112 108 107 103 95 90 94 88 85 81 74 68 69 67 56 55 41 23 17 357 15 46 35 51 46 41 27 44 304 299 343 353 2 338 354 354 355 341
113 110 106 104 105 104 103 102 99 98 95 88 88 85 79 73 71 69 69 58 45 37 22 15 29 69 52 44 44 43 17 1 17 333 298 299 288 316 329 320 336 327 333
113 112 108 104 103 101 97 100 93 96 95 89 82 82 82 76 65 57 57 51 40 34 40 65 71 77 76 55 40 9 354 348 338 320 289 284 284 311 326 329 336 323 322
111 107 108 107 101 94 93 89 91 89 88 86 91 84 71 61 41 40 46 45 41 53 67 85 80 76 60 41 40 350 355 345 327 310 312 317 344 344 340 317 296 314 308
110 112 109 106 98 96 94 91 88 86 88 90 81 75 61 56 35 46 62 49 39 59 61 109 79 43 41 21 17 4 3 357 356 360 334 327 292 316 329 331 323 331 336
108 110 108 102 97 96 94 91 88 95 98 89 82 83 69 53 41 45 52 50 44 39 55 65 57 36 25 359 5 10 4 28 46 303 298 310 309 329 315 317 319 303 280
102 104 103 99 99 95 89 85 91 103 103 101 98 86 70 47 45 45 59 55 53 61 71 63 55 25 2 8 6 5 1 354 346 338 308 299 282 297 281 284 282 282 272
101 101 97 104 99 95 94 105 106 103 105 103 104 90 76 52 50 50 57 49 60 68 64 60 51 22 357 21 25 357 349 346 344 326 306 298 308 320 325 320 318 315 309
100 98 97 96 99 102 108 111 100 105 110 109 95 83 84 66 46 48 51 61 61 54 41 34 33 20 22 18 14 360 359 342 342 346 360 356 1 336 338 347 334 317 314
102 97 94 94 99 104 100 105 111 113 110 101 96 81 73 63 41 42 42 47 41 34 36 14 9 2 34 40 40 28 10 340 344 344 342 334 335 331 330 324 319 304 309
94 94 93 91 95 90 93 97 99 111 110 104 104 93 63 41 39 34 38 34 40 50 36 29 38 57 61 47 36 8 358 355 352 342 338 336 331 326 319 315 306 300 280
92 89 85 82 75 68 72 77 74 82 101 124 126 101 64 14 22 30 25 21 20 46 42 81 55 49 46 25 13 359 352 348 341 340 336 329 327 320 318 317 313 302 294
95 93 89 89 81 67 64 56 70 67 81 89 100 96 82 43 25 5 6 13 33 53 50 49 56 47 37 16 351 349 340 331 332 324 331 326 323 326 326 325 321 324 322
102 104 93 83 87 85 72 56 73 53 100 120 99 117 120 81 302 321 11 37 44 72 70 43 38 22 6 352 345 345 335 331 341 340 341 334 332 331 326 324 314 315 308
111 108 110 105 104 94 93 80 49 69 89 93 110 123 97 159 218 86 61 67 57 54 32 44 27 16 9 348 359 352 339 349 349 344 341 336 332 330 325 323 317 319 313
121 119 118 112 104 116 109 107 104 33 62 83 96 95 90 131 118 107 82 62 42 39 39 21 31 29 5 2 1 353 347 345 344 345 337 334 331 327 329 325 328 328 324
108 120 124 132 129 122 125 133 124 121 119 81 11 82 78 101 116 102 98 51 30 25 35 37 40 37 15 16 5 358 347 345 348 342 339 337 334 329 327 331 330 332 332
98 117 137 141 145 146 148 146 143 140 133 116 48 346 344 38 18 10 60 61 49 65 57 52 41 33 16 15 1 353 345 343 340 337 336 335 333 333 328 326 322 329 331
89 117 116 122 133 140 143 144 147 148 143 153 173 206 211 39 72 16 42 46 64 78 75 66 37 33 14 9 2 354 347 347 345 343 337 331 331 331 327 326 326 333 341
112 112 121 124 131 137 140 125 125 132 146 156 152 166 162 114 103 90 85 64 75 83 78 71 48 32 17 5 5 0 349 342 340 335 331 329 330 331 329 322 327 333 340
151 137 133 130 143 138 138 130 135 126 129 118 103 73 104 84 83 79 81 72 70 83 78 80 63 41 19 11 359 359 352 345 338 334 328 328 329 328 329 337 339 344 347
173 164 171 167 156 136 140 142 143 123 114 111 101 82 69 70 69 66 77 83 80 79 67 68 62 41 15 7 359 355 350 338 324 317 317 319 327 332 335 338 338 349 355
126 171 219 161 140 138 140 139 130 114 112 101 91 82 79 68 66 64 62 69 80 82 67 63 51 48 28 15 5 355 349 341 329 320 319 315 326 338 342 342 340 346 357
116 92 97 138 128 126 115 111 109 111 104 98 92 88 77 67 60 54 56 71 72 76 75 57 46 37 30 17 9 357 350 349 346 340 332 336 343 346 349 345 344 348 359
328 245 140 109 107 114 114 112 109 106 102 98 91 75 73 73 63 56 50 65 70 67 66 71 48 41 27 17 6 357 353 353 352 349 347 350 352 350 350 350 351 353 359